IBEO604 LEMD-LEZL

Flight info

Callsign IBEO604
Flight time 0h 43m
Altitude 31000
Route VTB N10 HIJ
Aircraft B739/M-SDE2E3FGHIRWXY/LB1

Departure

Time 2026-05-01 08:31
Airport Adolfo Suárez Madrid–Barajas Airport (LEMD)

Arrival

Time 2026-05-01 09:14
Airport Seville Airport (LEZL)
Time Latitude Longitude Altitude Speed Heading
2026-05-01 08:28 40.49356 -3.56948 2012 ft 3 kts 89°
2026-05-01 08:28 40.49356 -3.56975 2012 ft 3 kts 89°
2026-05-01 08:29 40.49350 -3.56964 2012 ft 7 kts 136°
2026-05-01 08:29 40.49287 -3.57018 2012 ft 14 kts 271°
2026-05-01 08:29 40.49285 -3.57180 2012 ft 17 kts 267°
2026-05-01 08:29 40.49198 -3.57267 2012 ft 19 kts 207°
2026-05-01 08:30 40.49170 -3.57392 2012 ft 15 kts 300°
2026-05-01 08:30 40.49269 -3.57451 2012 ft 17 kts 353°
2026-05-01 08:30 40.49636 -3.57457 2012 ft 102 kts
2026-05-01 08:30 40.50649 -3.57451 2066 ft 184 kts
2026-05-01 08:31 40.51982 -3.57035 2602 ft 202 kts 25°
2026-05-01 08:31 40.52964 -3.55741 3221 ft 205 kts 60°
2026-05-01 08:31 40.53164 -3.54628 3702 ft 207 kts 86°
2026-05-01 08:31 40.52653 -3.52861 4287 ft 217 kts 127°
2026-05-01 08:32 40.51319 -3.51885 4586 ft 234 kts 167°
2026-05-01 08:32 40.49669 -3.52017 5083 ft 240 kts 189°
2026-05-01 08:32 40.47999 -3.52411 5564 ft 248 kts 190°
2026-05-01 08:32 40.46285 -3.52842 6644 ft 253 kts 194°
2026-05-01 08:33 40.44528 -3.53386 7656 ft 268 kts 197°
2026-05-01 08:33 40.42668 -3.53926 8682 ft 278 kts 195°
2026-05-01 08:33 40.40730 -3.54238 9917 ft 283 kts 188°
2026-05-01 08:33 40.38750 -3.54268 10918 ft 298 kts 183°
2026-05-01 08:34 40.36605 -3.54089 11768 ft 317 kts 179°
2026-05-01 08:34 40.34351 -3.53802 12710 ft 331 kts 178°
2026-05-01 08:34 40.32035 -3.53493 13859 ft 337 kts 178°
2026-05-01 08:34 40.29669 -3.53180 14982 ft 344 kts 178°
2026-05-01 08:35 40.27256 -3.52860 16121 ft 350 kts 178°
2026-05-01 08:35 40.24840 -3.52541 17217 ft 356 kts 178°
2026-05-01 08:35 40.22349 -3.52212 18302 ft 362 kts 178°
2026-05-01 08:35 40.19821 -3.51878 19330 ft 368 kts 178°
2026-05-01 08:36 40.17247 -3.51538 20306 ft 374 kts 178°
2026-05-01 08:36 40.14629 -3.51193 21234 ft 379 kts 178°
2026-05-01 08:36 40.12011 -3.50848 22095 ft 384 kts 178°
2026-05-01 08:36 40.09334 -3.50495 22955 ft 388 kts 178°
2026-05-01 08:37 40.06622 -3.50139 23741 ft 393 kts 178°
2026-05-01 08:37 40.03876 -3.49778 24482 ft 398 kts 178°
2026-05-01 08:37 40.01098 -3.49413 25187 ft 402 kts 178°
2026-05-01 08:37 39.98323 -3.49049 25842 ft 407 kts 178°
2026-05-01 08:38 39.95487 -3.48677 26476 ft 411 kts 178°
2026-05-01 08:38 39.92630 -3.48303 27078 ft 415 kts 178°
2026-05-01 08:38 39.89742 -3.47924 27646 ft 419 kts 178°
2026-05-01 08:38 39.86824 -3.47543 28205 ft 422 kts 178°
2026-05-01 08:39 39.83903 -3.47161 28862 ft 421 kts 178°
2026-05-01 08:39 39.80989 -3.47073 29489 ft 415 kts 190°
2026-05-01 08:39 39.78280 -3.48039 30087 ft 408 kts 206°
2026-05-01 08:39 39.75808 -3.49786 30688 ft 402 kts 217°
2026-05-01 08:40 39.71754 -3.54687 30989 ft 396 kts 229°
2026-05-01 08:40 39.67909 -3.59789 30997 ft 395 kts 228°
2026-05-01 08:41 39.64039 -3.64876 30996 ft 396 kts 228°
2026-05-01 08:41 39.60161 -3.69961 30996 ft 396 kts 228°
2026-05-01 08:42 39.56307 -3.75007 30997 ft 396 kts 227°
2026-05-01 08:42 39.54341 -3.77578 31007 ft 409 kts 227°
2026-05-01 08:42 39.52302 -3.80242 30998 ft 418 kts 227°
2026-05-01 08:43 39.48147 -3.85666 30995 ft 427 kts 227°
2026-05-01 08:43 39.43962 -3.91118 30996 ft 426 kts 227°
2026-05-01 08:44 39.39806 -3.96523 30997 ft 426 kts 227°
2026-05-01 08:44 39.35619 -4.01958 30996 ft 426 kts 227°
2026-05-01 08:45 39.31451 -4.07359 30997 ft 426 kts 227°
2026-05-01 08:45 39.27234 -4.12813 30997 ft 426 kts 227°
2026-05-01 08:46 39.23052 -4.18212 30996 ft 426 kts 227°
2026-05-01 08:46 39.18857 -4.23619 30996 ft 426 kts 227°
2026-05-01 08:47 39.14682 -4.28991 30997 ft 426 kts 227°
2026-05-01 08:47 39.10481 -4.34385 30997 ft 426 kts 227°
2026-05-01 08:48 39.06275 -4.39778 30996 ft 426 kts 227°
2026-05-01 08:48 39.02091 -4.45132 30996 ft 426 kts 227°
2026-05-01 08:49 38.97886 -4.50503 30997 ft 426 kts 227°
2026-05-01 08:49 38.93670 -4.55879 30997 ft 426 kts 227°
2026-05-01 08:50 38.89452 -4.61246 30997 ft 426 kts 227°
2026-05-01 08:50 38.85229 -4.66608 30997 ft 426 kts 227°
2026-05-01 08:51 38.81027 -4.71937 30996 ft 426 kts 227°
2026-05-01 08:51 38.76802 -4.77284 30996 ft 426 kts 227°
2026-05-01 08:52 38.72575 -4.82623 30997 ft 426 kts 227°
2026-05-01 08:52 38.70496 -4.85244 30739 ft 423 kts 227°
2026-05-01 08:52 38.68402 -4.87885 30053 ft 422 kts 227°
2026-05-01 08:53 38.66321 -4.90506 29633 ft 414 kts 227°
2026-05-01 08:53 38.64290 -4.93062 29355 ft 403 kts 227°
2026-05-01 08:53 38.62312 -4.95549 29008 ft 395 kts 227°
2026-05-01 08:53 38.60356 -4.98006 28402 ft 393 kts 227°
2026-05-01 08:54 38.58408 -5.00452 27795 ft 392 kts 227°
2026-05-01 08:54 38.57119 -5.02069 27402 ft 390 kts 227°
2026-05-01 08:54 38.55190 -5.04487 26814 ft 388 kts 227°
2026-05-01 08:54 38.53262 -5.06902 26226 ft 385 kts 227°
2026-05-01 08:55 38.50579 -5.09841 25483 ft 385 kts 215°
2026-05-01 08:55 38.48976 -5.10897 25210 ft 383 kts 207°
2026-05-01 08:55 38.46508 -5.12117 24723 ft 379 kts 204°
2026-05-01 08:55 38.44071 -5.13282 24155 ft 377 kts 204°
2026-05-01 08:56 38.41627 -5.14476 23588 ft 374 kts 204°
2026-05-01 08:56 38.39202 -5.15666 23027 ft 371 kts 204°
2026-05-01 08:56 38.36796 -5.16845 22470 ft 368 kts 204°
2026-05-01 08:56 38.34409 -5.18013 21915 ft 366 kts 204°
2026-05-01 08:57 38.32072 -5.19157 21368 ft 363 kts 204°
2026-05-01 08:57 38.29724 -5.20304 20816 ft 360 kts 204°
2026-05-01 08:57 38.27391 -5.21444 20264 ft 357 kts 204°
2026-05-01 08:57 38.25076 -5.22574 19712 ft 354 kts 204°
2026-05-01 08:58 38.22780 -5.23694 19161 ft 351 kts 204°
2026-05-01 08:58 38.20508 -5.24801 18613 ft 348 kts 204°
2026-05-01 08:58 38.18284 -5.25884 18073 ft 345 kts 204°
2026-05-01 08:58 38.16038 -5.26978 17476 ft 343 kts 204°
2026-05-01 08:59 38.13808 -5.28063 16871 ft 342 kts 204°
2026-05-01 08:59 38.11585 -5.29143 16264 ft 341 kts 204°
2026-05-01 08:59 38.09373 -5.30218 15656 ft 339 kts 204°
2026-05-01 08:59 38.07195 -5.31275 15054 ft 338 kts 204°
2026-05-01 09:00 38.05004 -5.32339 14452 ft 336 kts 204°
2026-05-01 09:00 38.02799 -5.33408 13831 ft 334 kts 204°
2026-05-01 09:00 38.00659 -5.34445 13228 ft 333 kts 204°
2026-05-01 09:00 37.98498 -5.35491 12622 ft 331 kts 204°
2026-05-01 09:01 37.96355 -5.36529 12015 ft 328 kts 204°
2026-05-01 09:01 37.94228 -5.37558 11425 ft 326 kts 204°
2026-05-01 09:01 37.92122 -5.38575 10903 ft 321 kts 204°
2026-05-01 09:01 37.90070 -5.39566 10602 ft 309 kts 204°
2026-05-01 09:02 37.88087 -5.40523 10348 ft 298 kts 204°
2026-05-01 09:02 37.86185 -5.41440 10115 ft 288 kts 204°
2026-05-01 09:02 37.84364 -5.42319 9853 ft 280 kts 205°
2026-05-01 09:02 37.82552 -5.43194 9491 ft 278 kts 205°
2026-05-01 09:03 37.80752 -5.44061 9145 ft 275 kts 205°
2026-05-01 09:03 37.78969 -5.44920 8806 ft 272 kts 205°
2026-05-01 09:03 37.77239 -5.45750 8453 ft 257 kts 205°
2026-05-01 09:03 37.75598 -5.46539 8131 ft 248 kts 205°
2026-05-01 09:04 37.73945 -5.47335 7880 ft 258 kts 204°
2026-05-01 09:04 37.72251 -5.48149 7584 ft 263 kts 204°
2026-05-01 09:04 37.70532 -5.48973 7278 ft 266 kts 203°
2026-05-01 09:04 37.68818 -5.49796 6973 ft 268 kts 203°
2026-05-01 09:05 37.67065 -5.50637 6668 ft 269 kts 202°
2026-05-01 09:05 37.65348 -5.51583 6345 ft 269 kts 211°
2026-05-01 09:05 37.63861 -5.52991 6110 ft 266 kts 221°
2026-05-01 09:05 37.62494 -5.54562 5850 ft 265 kts 223°
2026-05-01 09:06 37.61144 -5.56099 5568 ft 266 kts 222°
2026-05-01 09:06 37.59735 -5.57671 5282 ft 266 kts 221°
2026-05-01 09:06 37.58363 -5.59194 5010 ft 266 kts 221°
2026-05-01 09:06 37.56974 -5.60730 4736 ft 266 kts 221°
2026-05-01 09:07 37.55493 -5.62105 4492 ft 262 kts 207°
2026-05-01 09:07 37.53792 -5.62527 4321 ft 241 kts 180°
2026-05-01 09:07 37.52195 -5.62243 4230 ft 224 kts 168°
2026-05-01 09:07 37.50738 -5.61717 4100 ft 213 kts 163°
2026-05-01 09:08 37.49359 -5.61185 3941 ft 206 kts 163°
2026-05-01 09:08 37.48004 -5.60694 3804 ft 199 kts 164°
2026-05-01 09:08 37.46667 -5.60250 3692 ft 200 kts 169°
2026-05-01 09:08 37.45305 -5.60518 3529 ft 201 kts 205°
2026-05-01 09:09 37.44193 -5.61588 3535 ft 201 kts 221°
2026-05-01 09:09 37.43199 -5.62799 3437 ft 203 kts 225°
2026-05-01 09:09 37.42252 -5.64120 3285 ft 204 kts 236°
2026-05-01 09:09 37.41827 -5.65791 3237 ft 198 kts 260°
2026-05-01 09:10 37.41780 -5.67438 3222 ft 182 kts 271°
2026-05-01 09:10 37.41824 -5.69009 2997 ft 177 kts 272°
2026-05-01 09:10 37.41851 -5.70504 2737 ft 164 kts 270°
2026-05-01 09:10 37.41854 -5.71890 2518 ft 158 kts 270°
2026-05-01 09:11 37.41848 -5.73254 2309 ft 155 kts 270°
2026-05-01 09:11 37.41841 -5.74615 2111 ft 155 kts 270°
2026-05-01 09:11 37.41835 -5.75979 1910 ft 156 kts 270°
2026-05-01 09:11 37.41830 -5.77343 1705 ft 156 kts 270°
2026-05-01 09:12 37.41826 -5.78702 1500 ft 155 kts 270°
2026-05-01 09:12 37.41822 -5.80043 1385 ft 154 kts 270°
2026-05-01 09:12 37.41818 -5.81394 1129 ft 154 kts 269°
2026-05-01 09:12 37.41814 -5.82675 846 ft 139 kts 269°
2026-05-01 09:13 37.41811 -5.83853 675 ft 132 kts 270°
2026-05-01 09:13 37.41809 -5.85002 544 ft 131 kts 270°
2026-05-01 09:13 37.41805 -5.86143 378 ft 132 kts 270°
2026-05-01 09:13 37.41801 -5.87292 182 ft 130 kts 270°
2026-05-01 09:14 37.41797 -5.88377 123 ft 110 kts 269°
2026-05-01 09:14 37.41791 -5.89190 123 ft 65 kts 269°
2026-05-01 09:14 37.41793 -5.89530 123 ft 27 kts 272°
2026-05-01 09:14 37.41803 -5.89733 123 ft 21 kts 283°
2026-05-01 09:15 37.41904 -5.89836 123 ft 21 kts 345°
2026-05-01 09:15 37.42033 -5.89796 123 ft 19 kts 16°
2026-05-01 09:15 37.42134 -5.89864 123 ft 19 kts 314°
2026-05-01 09:15 37.42210 -5.89960 123 ft 0 kts 315°
2026-05-01 09:17 37.42211 -5.89960 123 ft 0 kts 315°